| time (UTC) | temp F | wind direction | speed MPH | gust MPH | rain 1hr in | rain 24hr in | rain mn in | humidity % | barometer mb |
| 20260503035036 | 58 | 0 | 0.0 | 0.0 | 0.00 | 0.01 | 0.00 | 84 | 1012.2 |
| 20260503034031 | 59 | 0 | 0.0 | 0.0 | 0.00 | 0.01 | 0.00 | 82 | 1012.3 |
| 20260503033027 | 59 | 0 | 0.0 | 0.0 | 0.00 | 0.01 | 0.00 | 82 | 1012.3 |
| 20260503032036 | 59 | 0 | 0.0 | 0.0 | 0.00 | 0.01 | 0.00 | 81 | 1012.2 |
| 20260503031020 | 59 | 0 | 0.0 | 0.0 | 0.00 | 0.01 | 0.00 | 82 | 1012.2 |
| 20260503030023 | 59 | 0 | 0.0 | 0.0 | 0.00 | 0.01 | 0.00 | 83 | 1012.3 |
| 20260503024032 | 59 | 0 | 0.0 | 0.0 | 0.00 | 0.01 | 0.00 | 82 | 1012.4 |
| 20260503022030 | 59 | 0 | 0.0 | 0.0 | 0.00 | 0.01 | 0.00 | 82 | 1012.5 |
| 20260503021030 | 59 | 0 | 0.0 | 0.0 | 0.00 | 0.01 | 0.00 | 84 | 1012.6 |
| 20260503020024 | 59 | 0 | 0.0 | 0.0 | 0.00 | 0.01 | 0.00 | 85 | 1012.5 |
| 20260503015033 | 58 | 0 | 0.0 | 0.0 | 0.00 | 0.01 | 0.00 | 87 | 1012.7 |
| 20260503014032 | 60 | 0 | 0.0 | 0.0 | 0.00 | 0.01 | 0.00 | 82 | 1012.7 |
| 20260503013036 | 60 | 0 | 0.0 | 0.0 | 0.00 | 0.01 | 0.00 | 80 | 1012.8 |
| 20260503011036 | 59 | 0 | 0.0 | 0.0 | 0.00 | 0.01 | 0.00 | 84 | 1013.0 |
| 20260503010036 | 59 | 0 | 0.0 | 0.0 | 0.00 | 0.01 | 0.00 | 85 | 1013.1 |
| 20260503004035 | 59 | 0 | 0.0 | 0.0 | 0.00 | 0.01 | 0.00 | 86 | 1013.3 |
| 20260503003036 | 59 | 0 | 0.0 | 0.0 | 0.00 | 0.01 | 0.00 | 85 | 1013.2 |
| 20260503002034 | 59 | 0 | 0.0 | 0.0 | 0.00 | 0.01 | 0.00 | 85 | 1013.2 |
| 20260503001032 | 59 | 0 | 0.0 | 0.0 | 0.00 | 0.01 | 0.00 | 84 | 1013.3 |
| 20260503000039 | 60 | 0 | 0.0 | 0.0 | 0.00 | 0.01 | 0.00 | 82 | 1013.4 |
| 20260502235039 | 60 | 0 | 0.0 | 0.0 | 0.00 | 0.01 | 0.00 | 82 | 1013.5 |
| 20260502234035 | 60 | 0 | 0.0 | 0.0 | 0.00 | 0.01 | 0.00 | 84 | 1013.6 |
| 20260502233038 | 59 | 0 | 0.0 | 0.0 | 0.00 | 0.01 | 0.00 | 85 | 1013.6 |
| 20260502232037 | 60 | 0 | 0.0 | 0.0 | 0.00 | 0.01 | 0.00 | 83 | 1013.5 |
| 20260502230035 | 61 | 0 | 0.0 | 0.0 | 0.00 | 0.01 | 0.00 | 79 | 1013.6 |
| 20260502225038 | 60 | 0 | 0.0 | 0.0 | 0.00 | 0.01 | 0.00 | 83 | 1013.6 |
| 20260502224036 | 60 | 0 | 0.0 | 0.0 | 0.00 | 0.01 | 0.00 | 83 | 1013.6 |
| 20260502223037 | 60 | 0 | 0.0 | 0.0 | 0.00 | 0.01 | 0.00 | 81 | 1013.6 |
| 20260502221035 | 60 | 0 | 0.0 | 0.0 | 0.00 | 0.01 | 0.00 | 82 | 1013.7 |
| 20260502220036 | 60 | 0 | 0.0 | 0.0 | 0.00 | 0.01 | 0.00 | 83 | 1013.7 |
| 20260502215037 | 60 | 0 | 0.0 | 0.0 | 0.00 | 0.01 | 0.01 | 83 | 1013.7 |
| 20260502214038 | 60 | 0 | 0.0 | 0.0 | 0.00 | 0.01 | 0.01 | 83 | 1013.8 |
| 20260502213037 | 60 | 0 | 0.0 | 0.0 | 0.00 | 0.01 | 0.01 | 83 | 1013.8 |
| 20260502212036 | 60 | 0 | 0.0 | 0.0 | 0.00 | 0.01 | 0.01 | 85 | 1013.9 |
| 20260502211036 | 60 | 0 | 0.0 | 0.0 | 0.00 | 0.01 | 0.01 | 85 | 1013.8 |
| 20260502210036 | 61 | 0 | 0.0 | 0.0 | 0.00 | 0.01 | 0.01 | 83 | 1013.8 |
| 20260502204039 | 61 | 0 | 0.0 | 0.0 | 0.00 | 0.01 | 0.01 | 81 | 1013.9 |
| 20260502203039 | 62 | 0 | 0.0 | 0.0 | 0.00 | 0.01 | 0.01 | 79 | 1014.0 |
| 20260502202035 | 62 | 0 | 0.0 | 0.0 | 0.00 | 0.01 | 0.01 | 79 | 1014.0 |
| 20260502201027 | 62 | 0 | 0.0 | 0.0 | 0.00 | 0.01 | 0.01 | 78 | 1014.0 |
| 20260502194037 | 64 | 0 | 0.0 | 0.0 | 0.00 | 0.01 | 0.01 | 75 | 1014.1 |
| 20260502193037 | 64 | 0 | 0.0 | 0.0 | 0.00 | 0.01 | 0.01 | 76 | 1014.1 |
| 20260502191035 | 65 | 0 | 0.0 | 0.0 | 0.00 | 0.01 | 0.01 | 74 | 1014.2 |
| 20260502185036 | 66 | 0 | 0.0 | 0.0 | 0.00 | 0.01 | 0.01 | 72 | 1014.2 |
| 20260502184037 | 66 | 0 | 0.0 | 0.0 | 0.00 | 0.01 | 0.01 | 71 | 1014.2 |
| 20260502183037 | 67 | 0 | 0.0 | 0.0 | 0.00 | 0.01 | 0.01 | 69 | 1014.2 |
| 20260502181037 | 70 | 0 | 0.0 | 0.0 | 0.00 | 0.01 | 0.01 | 64 | 1014.0 |
| 20260502164037 | 72 | 0 | 0.0 | 0.0 | 0.00 | 0.01 | 0.01 | 53 | 1014.0 |
| 20260502163037 | 72 | 0 | 0.0 | 0.0 | 0.00 | 0.01 | 0.01 | 54 | 1014.3 |
| 20260502162037 | 72 | 0 | 0.0 | 0.0 | 0.00 | 0.01 | 0.01 | 53 | 1014.4 |
| 20260502152037 | 74 | 0 | 0.0 | 0.0 | 0.00 | 0.01 | 0.01 | 52 | 1014.9 |
| 20260502151040 | 74 | 0 | 0.0 | 0.0 | 0.00 | 0.01 | 0.01 | 54 | 1015.1 |
| 20260502123036 | 70 | 0 | 0.0 | 0.0 | 0.00 | 0.01 | 0.01 | 59 | 1017.7 |
| 20260502122037 | 70 | 0 | 0.0 | 0.0 | 0.00 | 0.01 | 0.01 | 61 | 1017.7 |
| 20260502121031 | 70 | 0 | 0.0 | 0.0 | 0.00 | 0.01 | 0.01 | 58 | 1017.8 |
| 20260502115037 | 70 | 0 | 0.0 | 0.0 | 0.00 | 0.01 | 0.01 | 58 | 1018.0 |
| 20260502114037 | 70 | 0 | 0.0 | 0.0 | 0.00 | 0.01 | 0.01 | 60 | 1018.2 |
| 20260502111037 | 70 | 0 | 0.0 | 0.0 | 0.00 | 0.01 | 0.01 | 63 | 1018.5 |
| 20260502110036 | 70 | 0 | 0.0 | 0.0 | 0.00 | 0.01 | 0.01 | 63 | 1018.6 |
| 20260502104036 | 69 | 0 | 0.0 | 0.0 | 0.00 | 0.01 | 0.01 | 63 | 1018.7 |
| 20260502103037 | 69 | 0 | 0.0 | 0.0 | 0.00 | 0.01 | 0.01 | 64 | 1018.8 |
| 20260502102037 | 69 | 0 | 0.0 | 0.0 | 0.00 | 0.01 | 0.01 | 63 | 1018.9 |
| 20260502101038 | 69 | 0 | 0.0 | 0.0 | 0.00 | 0.01 | 0.01 | 64 | 1018.9 |
| 20260502091037 | 67 | 0 | 0.0 | 0.0 | 0.00 | 0.01 | 0.01 | 68 | 1019.2 |
| 20260502070023 | 56 | 0 | 0.0 | 0.0 | 0.00 | 0.01 | 0.01 | 79 | 1020.3 |
| 20260502065036 | 56 | 0 | 0.0 | 0.0 | 0.00 | 0.01 | 0.01 | 79 | 1020.3 |
| 20260502064037 | 56 | 0 | 0.0 | 0.0 | 0.00 | 0.01 | 0.01 | 80 | 1020.3 |
| 20260502063039 | 55 | 0 | 0.0 | 0.0 | 0.00 | 0.01 | 0.01 | 80 | 1020.3 |
| 20260502062036 | 55 | 0 | 0.0 | 0.0 | 0.00 | 0.01 | 0.01 | 81 | 1020.3 |
| 20260502061040 | 54 | 0 | 0.0 | 0.0 | 0.00 | 0.01 | 0.01 | 80 | 1020.4 |
| 20260502060036 | 54 | 0 | 0.0 | 0.0 | 0.00 | 0.01 | 0.01 | 79 | 1020.4 |
| 20260502055038 | 53 | 0 | 0.0 | 0.0 | 0.00 | 0.01 | 0.01 | 80 | 1020.4 |
| 20260502054038 | 53 | 0 | 0.0 | 0.0 | 0.00 | 0.01 | 0.01 | 79 | 1020.4 |
| 20260502053037 | 53 | 0 | 0.0 | 0.0 | 0.00 | 0.01 | 0.01 | 78 | 1020.4 |
| 20260502051034 | 52 | 0 | 0.0 | 0.0 | 0.00 | 0.01 | 0.01 | 78 | 1020.3 |
| 20260502050038 | 52 | 0 | 0.0 | 0.0 | 0.01 | 0.01 | 0.01 | 77 | 1020.2 |
| 20260502045035 | 52 | 0 | 0.0 | 0.0 | 0.01 | 0.01 | 0.01 | 76 | 1020.1 |
| 20260502044038 | 52 | 0 | 0.0 | 0.0 | 0.01 | 0.01 | 0.01 | 76 | 1020.0 |
| 20260502043036 | 54 | 0 | 0.0 | 0.0 | 0.01 | 0.01 | 0.01 | 73 | 1019.9 |
| 20260502042035 | 57 | 0 | 0.0 | 0.0 | 0.01 | 0.01 | 0.01 | 71 | 1019.7 |
| 20260502041037 | 56 | 0 | 0.0 | 0.0 | 0.01 | 0.01 | 0.01 | 69 | 1020.0 |
| 20260502040039 | 56 | 0 | 0.0 | 0.0 | 0.01 | 0.01 | 0.01 | 67 | 1020.0 |